Time,TemperatureF,DewpointF,PressureIn,WindDirection,WindDirectionDegrees,WindSpeedMPH,WindSpeedGustMPH,Humidity,HourlyPrecipIn,Conditions,Clouds,dailyrainin,SoftwareType,DateUTC
2013-06-11 00:03:00,88.5,27.3,29.54,South,178,6.9,8.9,11,0.00,,,0.00,meteobridge,2013-06-11 06:03:00,
2013-06-11 00:08:00,88.5,27.3,29.55,SSE,148,6.9,8.9,11,0.00,,,0.00,meteobridge,2013-06-11 06:08:00,
2013-06-11 00:14:00,88.3,24.8,29.55,SW,215,4.0,8.1,10,0.00,,,0.00,meteobridge,2013-06-11 06:14:00,
2013-06-11 00:19:00,88.0,27.0,29.55,SSW,194,2.0,4.9,11,0.00,,,0.00,meteobridge,2013-06-11 06:19:00,
2013-06-11 00:24:00,87.4,26.4,29.55,South,188,0.0,2.9,11,0.00,,,0.00,meteobridge,2013-06-11 06:24:00,
2013-06-11 00:29:00,86.7,25.9,29.55,South,177,2.0,2.0,11,0.00,,,0.00,meteobridge,2013-06-11 06:29:00,
2013-06-11 00:34:00,86.2,25.5,29.56,West,262,4.0,4.9,11,0.00,,,0.00,meteobridge,2013-06-11 06:34:00,
2013-06-11 00:39:00,86.4,23.4,29.56,WNW,299,0.9,2.9,10,0.00,,,0.00,meteobridge,2013-06-11 06:39:00,
2013-06-11 00:44:00,86.2,23.2,29.56,WSW,240,2.0,6.9,10,0.00,,,0.00,meteobridge,2013-06-11 06:44:00,
2013-06-11 00:49:00,85.6,22.8,29.57,WSW,253,0.0,6.0,10,0.00,,,0.00,meteobridge,2013-06-11 06:49:00,
2013-06-11 00:54:00,85.6,20.3,29.56,WSW,238,0.9,8.1,9,0.00,,,0.00,meteobridge,2013-06-11 06:54:00,
2013-06-11 00:59:00,85.8,20.5,29.56,WSW,255,2.9,6.9,9,0.00,,,0.00,meteobridge,2013-06-11 06:59:00,
2013-06-11 01:04:00,85.8,20.5,29.57,NW,306,0.9,4.0,9,0.00,,,0.00,meteobridge,2013-06-11 07:04:00,
2013-06-11 01:09:00,85.6,20.3,29.57,SW,231,2.0,6.0,9,0.00,,,0.00,meteobridge,2013-06-11 07:09:00,
2013-06-11 01:14:00,85.5,20.1,29.57,WSW,249,0.9,2.0,9,0.00,,,0.00,meteobridge,2013-06-11 07:14:00,
2013-06-11 01:19:00,84.7,19.6,29.57,NW,305,0.0,2.9,9,0.00,,,0.00,meteobridge,2013-06-11 07:19:00,
2013-06-11 01:24:00,84.0,19.0,29.57,West,277,0.9,0.9,9,0.00,,,0.00,meteobridge,2013-06-11 07:24:00,
2013-06-11 01:29:00,83.5,21.2,29.57,West,277,0.0,0.9,10,0.00,,,0.00,meteobridge,2013-06-11 07:29:00,
2013-06-11 01:35:00,82.0,22.3,29.58,West,277,0.0,0.0,11,0.00,,,0.00,meteobridge,2013-06-11 07:35:00,
2013-06-11 01:40:00,81.7,24.1,29.58,SE,134,2.0,2.9,12,0.00,,,0.00,meteobridge,2013-06-11 07:40:00,
2013-06-11 01:45:00,81.7,26.1,29.58,East,101,0.0,0.0,13,0.00,,,0.00,meteobridge,2013-06-11 07:45:00,
2013-06-11 01:50:00,80.8,27.1,29.58,East,101,0.0,0.9,14,0.00,,,0.00,meteobridge,2013-06-11 07:50:00,
2013-06-11 01:56:00,80.1,26.6,29.58,East,101,0.9,0.9,14,0.00,,,0.00,meteobridge,2013-06-11 07:56:00,
2013-06-11 02:01:00,79.5,26.1,29.59,SSE,148,2.0,2.9,14,0.00,,,0.00,meteobridge,2013-06-11 08:01:00,
2013-06-11 02:06:00,79.5,27.9,29.59,SE,146,2.9,4.0,15,0.00,,,0.00,meteobridge,2013-06-11 08:06:00,
2013-06-11 02:11:00,79.9,26.4,29.59,SSE,147,0.0,0.9,14,0.00,,,0.00,meteobridge,2013-06-11 08:11:00,
2013-06-11 02:16:00,80.1,24.8,29.59,SSE,153,0.9,2.0,13,0.00,,,0.00,meteobridge,2013-06-11 08:16:00,
2013-06-11 02:21:00,79.3,26.1,29.59,SSE,152,0.0,0.0,14,0.00,,,0.00,meteobridge,2013-06-11 08:21:00,
2013-06-11 02:26:00,78.4,27.0,29.59,SSE,152,0.0,0.0,15,0.00,,,0.00,meteobridge,2013-06-11 08:26:00,
2013-06-11 02:31:00,77.4,27.7,29.59,SSE,153,0.0,0.9,16,0.00,,,0.00,meteobridge,2013-06-11 08:31:00,
2013-06-11 02:37:00,77.2,27.5,29.59,SE,136,0.0,0.0,16,0.00,,,0.00,meteobridge,2013-06-11 08:37:00,
2013-06-11 02:42:00,77.5,26.2,29.59,SE,136,0.0,0.0,15,0.00,,,0.00,meteobridge,2013-06-11 08:42:00,
2013-06-11 02:47:00,78.1,28.2,29.59,SE,136,0.0,2.9,16,0.00,,,0.00,meteobridge,2013-06-11 08:47:00,
2013-06-11 02:52:00,77.5,29.3,29.59,SE,136,0.0,0.0,17,0.00,,,0.00,meteobridge,2013-06-11 08:52:00,
2013-06-11 02:57:00,77.2,30.4,29.59,SE,136,0.0,0.0,18,0.00,,,0.00,meteobridge,2013-06-11 08:57:00,
2013-06-11 03:02:00,77.0,32.9,29.58,SE,136,0.0,0.9,20,0.00,,,0.00,meteobridge,2013-06-11 09:02:00,
2013-06-11 03:07:00,76.3,33.4,29.58,SE,136,0.0,0.0,21,0.00,,,0.00,meteobridge,2013-06-11 09:07:00,
2013-06-11 03:12:00,75.9,34.3,29.58,SE,136,0.0,0.9,22,0.00,,,0.00,meteobridge,2013-06-11 09:12:00,
2013-06-11 03:18:00,75.7,35.2,29.58,SE,136,0.0,0.9,23,0.00,,,0.00,meteobridge,2013-06-11 09:18:00,
2013-06-11 03:23:00,75.7,35.2,29.58,SE,136,0.0,0.0,23,0.00,,,0.00,meteobridge,2013-06-11 09:23:00,
2013-06-11 03:28:00,75.4,36.1,29.58,SE,136,0.0,0.0,24,0.00,,,0.00,meteobridge,2013-06-11 09:28:00,
2013-06-11 03:33:00,74.5,36.3,29.58,SE,136,0.0,0.0,25,0.00,,,0.00,meteobridge,2013-06-11 09:33:00,
2013-06-11 03:38:00,73.2,36.3,29.58,SE,136,0.0,0.0,26,0.00,,,0.00,meteobridge,2013-06-11 09:38:00,
2013-06-11 03:44:00,72.9,36.9,29.58,SE,136,0.0,0.9,27,0.00,,,0.00,meteobridge,2013-06-11 09:44:00,
2013-06-11 03:49:00,72.5,36.7,29.58,SE,136,0.0,0.0,27,0.00,,,0.00,meteobridge,2013-06-11 09:49:00,
2013-06-11 03:54:00,72.7,35.8,29.58,SE,131,0.0,0.0,26,0.00,,,0.00,meteobridge,2013-06-11 09:54:00,
2013-06-11 03:59:00,72.9,36.0,29.58,SE,131,0.0,0.9,26,0.00,,,0.00,meteobridge,2013-06-11 09:59:00,
2013-06-11 04:04:00,72.3,34.5,29.58,SE,129,0.9,0.9,25,0.00,,,0.00,meteobridge,2013-06-11 10:04:00,
2013-06-11 04:09:00,72.1,35.4,29.58,ESE,122,0.0,2.0,26,0.00,,,0.00,meteobridge,2013-06-11 10:09:00,
2013-06-11 04:14:00,72.0,34.2,29.59,SE,128,0.0,0.9,25,0.00,,,0.00,meteobridge,2013-06-11 10:14:00,
2013-06-11 04:19:00,72.0,33.3,29.59,SE,128,0.0,0.0,24,0.00,,,0.00,meteobridge,2013-06-11 10:19:00,
2013-06-11 04:24:00,72.0,32.2,29.59,SE,128,0.0,0.0,23,0.00,,,0.00,meteobridge,2013-06-11 10:24:00,
2013-06-11 04:29:00,71.6,30.7,29.59,SE,128,0.0,0.9,22,0.00,,,0.00,meteobridge,2013-06-11 10:29:00,
2013-06-11 04:34:00,71.4,30.6,29.59,ESE,114,0.0,2.9,22,0.00,,,0.00,meteobridge,2013-06-11 10:34:00,
2013-06-11 04:39:00,71.6,32.9,29.59,East,90,0.0,2.0,24,0.00,,,0.00,meteobridge,2013-06-11 10:39:00,
2013-06-11 04:44:00,72.0,34.2,29.60,ESE,107,0.9,0.9,25,0.00,,,0.00,meteobridge,2013-06-11 10:44:00,
2013-06-11 04:50:00,71.8,35.1,29.60,ESE,107,0.0,0.9,26,0.00,,,0.00,meteobridge,2013-06-11 10:50:00,
2013-06-11 04:55:00,71.1,35.4,29.60,ESE,112,0.0,0.9,27,0.00,,,0.00,meteobridge,2013-06-11 10:55:00,
2013-06-11 05:00:00,70.7,36.0,29.61,ESE,112,0.0,0.9,28,0.00,,,0.00,meteobridge,2013-06-11 11:00:00,
2013-06-11 05:05:00,70.5,35.8,29.61,ESE,112,0.0,0.9,28,0.00,,,0.00,meteobridge,2013-06-11 11:05:00,
2013-06-11 05:10:00,71.1,35.4,29.61,East,101,0.0,0.9,27,0.00,,,0.00,meteobridge,2013-06-11 11:10:00,
2013-06-11 05:15:00,71.4,34.7,29.61,ESE,106,0.0,2.0,26,0.00,,,0.00,meteobridge,2013-06-11 11:15:00,
2013-06-11 05:20:00,71.1,34.5,29.61,ESE,117,0.0,0.9,26,0.00,,,0.00,meteobridge,2013-06-11 11:20:00,
2013-06-11 05:25:00,70.5,34.9,29.61,SE,141,0.0,2.9,27,0.00,,,0.00,meteobridge,2013-06-11 11:25:00,
2013-06-11 05:30:00,70.2,34.7,29.62,North,5,0.0,2.0,27,0.00,,,0.00,meteobridge,2013-06-11 11:30:00,
2013-06-11 05:35:00,70.5,34.0,29.62,ESE,122,4.0,4.0,26,0.00,,,0.00,meteobridge,2013-06-11 11:35:00,
2013-06-11 05:40:00,71.2,32.5,29.62,ESE,113,0.9,2.9,24,0.00,,,0.00,meteobridge,2013-06-11 11:40:00,
2013-06-11 05:45:00,71.1,32.4,29.62,East,82,0.9,0.9,24,0.00,,,0.00,meteobridge,2013-06-11 11:45:00,
2013-06-11 05:50:00,70.9,32.4,29.62,ESE,122,0.9,2.9,24,0.00,,,0.00,meteobridge,2013-06-11 11:50:00,
2013-06-11 05:55:00,70.5,32.0,29.62,ESE,114,2.0,2.0,24,0.00,,,0.00,meteobridge,2013-06-11 11:55:00,
2013-06-11 06:00:00,70.3,32.9,29.62,ESE,121,0.0,0.0,25,0.00,,,0.00,meteobridge,2013-06-11 12:00:00,
2013-06-11 06:06:00,69.6,33.3,29.62,ESE,121,0.0,0.9,26,0.00,,,0.00,meteobridge,2013-06-11 12:06:00,
2013-06-11 06:11:00,69.3,32.9,29.63,ESE,121,0.0,0.0,26,0.00,,,0.00,meteobridge,2013-06-11 12:11:00,
2013-06-11 06:16:00,68.5,33.3,29.64,ESE,121,0.0,0.9,27,0.00,,,0.00,meteobridge,2013-06-11 12:16:00,
2013-06-11 06:21:00,68.5,32.4,29.64,SSE,155,2.0,4.0,26,0.00,,,0.00,meteobridge,2013-06-11 12:21:00,
2013-06-11 06:26:00,69.6,31.3,29.64,South,170,0.0,2.9,24,0.00,,,0.00,meteobridge,2013-06-11 12:26:00,
2013-06-11 06:32:00,69.8,30.4,29.64,South,191,0.0,0.9,23,0.00,,,0.00,meteobridge,2013-06-11 12:32:00,
2013-06-11 06:37:00,69.6,31.3,29.65,South,183,0.0,2.0,24,0.00,,,0.00,meteobridge,2013-06-11 12:37:00,
2013-06-11 06:42:00,69.4,31.1,29.65,SSE,162,0.9,2.0,24,0.00,,,0.00,meteobridge,2013-06-11 12:42:00,
2013-06-11 06:47:00,69.3,30.9,29.65,SSE,162,0.0,0.9,24,0.00,,,0.00,meteobridge,2013-06-11 12:47:00,
2013-06-11 06:52:00,69.1,32.7,29.65,SSE,162,0.9,0.9,26,0.00,,,0.00,meteobridge,2013-06-11 12:52:00,
2013-06-11 06:57:00,69.3,33.8,29.65,SSE,162,0.0,0.0,27,0.00,,,0.00,meteobridge,2013-06-11 12:57:00,
2013-06-11 07:02:00,69.1,34.5,29.66,SSE,162,0.9,0.9,28,0.00,,,0.00,meteobridge,2013-06-11 13:02:00,
2013-06-11 07:07:00,69.4,34.0,29.66,SSE,162,0.0,0.0,27,0.00,,,0.00,meteobridge,2013-06-11 13:07:00,
2013-06-11 07:12:00,70.2,31.6,29.66,SSE,162,0.0,0.9,24,0.00,,,0.00,meteobridge,2013-06-11 13:12:00,
2013-06-11 07:17:00,70.2,33.6,29.66,SSE,162,0.0,0.9,26,0.00,,,0.00,meteobridge,2013-06-11 13:17:00,
2013-06-11 07:22:00,70.3,31.8,29.67,ESE,104,2.0,2.0,24,0.00,,,0.00,meteobridge,2013-06-11 13:22:00,
2013-06-11 07:28:00,70.5,32.0,29.67,SE,127,0.0,0.9,24,0.00,,,0.00,meteobridge,2013-06-11 13:28:00,
2013-06-11 07:33:00,70.9,31.3,29.67,SE,139,2.9,2.9,23,0.00,,,0.00,meteobridge,2013-06-11 13:33:00,
2013-06-11 07:38:00,71.4,30.6,29.67,East,98,2.0,2.9,22,0.00,,,0.00,meteobridge,2013-06-11 13:38:00,
2013-06-11 07:43:00,72.1,31.1,29.67,SSE,149,2.0,2.0,22,0.00,,,0.00,meteobridge,2013-06-11 13:43:00,
2013-06-11 07:48:00,72.9,29.5,29.67,SE,137,0.9,2.0,20,0.00,,,0.00,meteobridge,2013-06-11 13:48:00,
2013-06-11 07:53:00,73.8,28.9,29.67,SSE,148,0.9,2.0,19,0.00,,,0.00,meteobridge,2013-06-11 13:53:00,
2013-06-11 07:58:00,74.5,28.2,29.67,SSE,153,2.0,4.0,18,0.00,,,0.00,meteobridge,2013-06-11 13:58:00,
2013-06-11 08:03:00,75.0,30.0,29.67,SSE,157,0.0,2.0,19,0.00,,,0.00,meteobridge,2013-06-11 14:03:00,
2013-06-11 08:08:00,75.6,29.1,29.67,SSE,148,2.9,4.0,18,0.00,,,0.00,meteobridge,2013-06-11 14:08:00,
2013-06-11 08:13:00,76.1,28.0,29.67,SE,142,0.0,2.0,17,0.00,,,0.00,meteobridge,2013-06-11 14:13:00,
2013-06-11 08:18:00,76.8,27.1,29.67,SE,142,0.9,2.0,16,0.00,,,0.00,meteobridge,2013-06-11 14:18:00,
2013-06-11 08:23:00,77.5,30.7,29.67,SE,142,2.0,2.0,18,0.00,,,0.00,meteobridge,2013-06-11 14:23:00,
2013-06-11 08:28:00,78.1,29.7,29.67,SE,142,0.9,0.9,17,0.00,,,0.00,meteobridge,2013-06-11 14:28:00,
2013-06-11 08:33:00,78.4,25.3,29.67,SE,142,0.9,0.9,14,0.00,,,0.00,meteobridge,2013-06-11 14:33:00,
2013-06-11 08:38:00,79.0,25.7,29.67,SE,142,0.0,0.9,14,0.00,,,0.00,meteobridge,2013-06-11 14:38:00,
2013-06-11 08:43:00,79.5,27.9,29.67,SE,142,0.0,0.9,15,0.00,,,0.00,meteobridge,2013-06-11 14:43:00,
2013-06-11 08:49:00,80.1,28.2,29.67,SE,142,0.0,0.9,15,0.00,,,0.00,meteobridge,2013-06-11 14:49:00,
2013-06-11 08:54:00,80.8,27.1,29.67,SE,142,0.0,0.0,14,0.00,,,0.00,meteobridge,2013-06-11 14:54:00,
2013-06-11 08:59:00,81.1,27.5,29.67,SE,142,0.0,0.0,14,0.00,,,0.00,meteobridge,2013-06-11 14:59:00,
2013-06-11 09:04:00,81.7,27.9,29.67,SE,142,0.0,0.0,14,0.00,,,0.00,meteobridge,2013-06-11 15:04:00,
2013-06-11 09:09:00,82.8,28.8,29.67,SE,142,0.0,0.0,14,0.00,,,0.00,meteobridge,2013-06-11 15:09:00,
2013-06-11 09:14:00,83.1,25.3,29.67,NNW,348,2.9,2.9,12,0.00,,,0.00,meteobridge,2013-06-11 15:14:00,
2013-06-11 09:19:00,83.7,23.5,29.67,NNW,338,0.0,2.0,11,0.00,,,0.00,meteobridge,2013-06-11 15:19:00,
2013-06-11 09:24:00,83.8,23.7,29.67,North,355,0.0,2.9,11,0.00,,,0.00,meteobridge,2013-06-11 15:24:00,
2013-06-11 09:29:00,85.3,24.8,29.67,North,0,2.9,2.9,11,0.00,,,0.00,meteobridge,2013-06-11 15:29:00,
2013-06-11 09:34:00,84.7,22.1,29.67,North,0,2.0,2.0,10,0.00,,,0.00,meteobridge,2013-06-11 15:34:00,
2013-06-11 09:40:00,84.9,24.6,29.67,North,9,0.0,0.0,11,0.00,,,0.00,meteobridge,2013-06-11 15:40:00,
2013-06-11 09:45:00,85.8,23.0,29.67,SW,222,0.9,2.0,10,0.00,,,0.00,meteobridge,2013-06-11 15:45:00,
2013-06-11 09:50:00,85.6,22.8,29.66,North,355,0.9,4.0,10,0.00,,,0.00,meteobridge,2013-06-11 15:50:00,
2013-06-11 09:55:00,86.2,23.2,29.66,North,5,0.9,4.9,10,0.00,,,0.00,meteobridge,2013-06-11 15:55:00,
2013-06-11 10:00:00,86.4,20.8,29.66,North,355,0.0,2.9,9,0.00,,,0.00,meteobridge,2013-06-11 16:00:00,
2013-06-11 10:05:00,86.7,21.2,29.66,NNE,24,0.0,4.0,9,0.00,,,0.00,meteobridge,2013-06-11 16:05:00,
2013-06-11 10:10:00,86.4,23.4,29.66,NNE,24,0.9,0.9,10,0.00,,,0.00,meteobridge,2013-06-11 16:10:00,
2013-06-11 10:15:00,86.9,26.1,29.66,NW,314,0.0,2.0,11,0.00,,,0.00,meteobridge,2013-06-11 16:15:00,
2013-06-11 10:20:00,87.4,21.7,29.65,NE,37,0.0,2.9,9,0.00,,,0.00,meteobridge,2013-06-11 16:20:00,
2013-06-11 10:25:00,86.9,23.7,29.65,SW,229,2.0,2.9,10,0.00,,,0.00,meteobridge,2013-06-11 16:25:00,
2013-06-11 10:30:00,87.4,24.3,29.65,SSW,197,2.9,4.9,10,0.00,,,0.00,meteobridge,2013-06-11 16:30:00,
2013-06-11 10:35:00,87.4,24.3,29.65,ESE,121,2.0,6.0,10,0.00,,,0.00,meteobridge,2013-06-11 16:35:00,
2013-06-11 10:40:00,87.4,24.3,29.65,WSW,242,4.0,4.9,10,0.00,,,0.00,meteobridge,2013-06-11 16:40:00,
2013-06-11 10:46:00,88.0,24.6,29.65,South,175,0.0,0.9,10,0.00,,,0.00,meteobridge,2013-06-11 16:46:00,
2013-06-11 10:51:00,89.4,23.2,29.65,SSE,153,0.0,0.9,9,0.00,,,0.00,meteobridge,2013-06-11 16:51:00,
2013-06-11 10:56:00,90.1,26.2,29.65,West,271,0.9,4.9,10,0.00,,,0.00,meteobridge,2013-06-11 16:56:00,
2013-06-11 11:01:00,90.0,23.5,29.65,SSE,164,0.9,4.0,9,0.00,,,0.00,meteobridge,2013-06-11 17:01:00,
2013-06-11 11:06:00,89.2,25.5,29.65,SE,140,2.0,4.0,10,0.00,,,0.00,meteobridge,2013-06-11 17:06:00,
2013-06-11 11:11:00,89.2,23.0,29.65,SSE,163,0.0,4.9,9,0.00,,,0.00,meteobridge,2013-06-11 17:11:00,
2013-06-11 11:16:00,90.1,23.7,29.65,SW,215,6.0,6.0,9,0.00,,,0.00,meteobridge,2013-06-11 17:16:00,
2013-06-11 11:21:00,89.6,23.4,29.65,WSW,240,0.9,2.9,9,0.00,,,0.00,meteobridge,2013-06-11 17:21:00,
2013-06-11 11:26:00,90.3,21.0,29.64,WSW,246,0.9,2.9,8,0.00,,,0.00,meteobridge,2013-06-11 17:26:00,
2013-06-11 11:31:00,90.1,20.8,29.64,SSW,212,0.9,6.0,8,0.00,,,0.00,meteobridge,2013-06-11 17:31:00,
2013-06-11 11:36:00,91.0,21.6,29.64,West,264,4.9,6.0,8,0.00,,,0.00,meteobridge,2013-06-11 17:36:00,
2013-06-11 11:41:00,91.8,22.1,29.64,East,88,0.9,4.9,8,0.00,,,0.00,meteobridge,2013-06-11 17:41:00,
2013-06-11 11:46:00,91.9,19.0,29.64,South,182,2.0,10.1,7,0.00,,,0.00,meteobridge,2013-06-11 17:46:00,
2013-06-11 11:51:00,92.5,22.6,29.63,SSW,211,2.0,4.0,8,0.00,,,0.00,meteobridge,2013-06-11 17:51:00,
2013-06-11 11:56:00,92.1,22.5,29.63,WSW,244,0.0,4.0,8,0.00,,,0.00,meteobridge,2013-06-11 17:56:00,
2013-06-11 12:01:00,92.3,22.5,29.63,WSW,240,2.0,8.9,8,0.00,,,0.00,meteobridge,2013-06-11 18:01:00,
2013-06-11 12:06:00,92.7,22.8,29.62,SW,234,0.0,2.0,8,0.00,,,0.00,meteobridge,2013-06-11 18:06:00,
2013-06-11 12:11:00,93.0,19.9,29.63,South,191,2.9,6.0,7,0.00,,,0.00,meteobridge,2013-06-11 18:11:00,
2013-06-11 12:17:00,93.7,20.5,29.63,SE,132,4.0,6.9,7,0.00,,,0.00,meteobridge,2013-06-11 18:17:00,
2013-06-11 12:22:00,93.4,20.1,29.62,SW,220,2.0,6.0,7,0.00,,,0.00,meteobridge,2013-06-11 18:22:00,
2013-06-11 12:27:00,93.9,23.7,29.62,WSW,237,4.0,6.9,8,0.00,,,0.00,meteobridge,2013-06-11 18:27:00,
2013-06-11 12:32:00,93.2,19.9,29.62,SSE,165,2.9,4.9,7,0.00,,,0.00,meteobridge,2013-06-11 18:32:00,
2013-06-11 12:37:00,93.7,20.5,29.62,SW,214,0.9,8.1,7,0.00,,,0.00,meteobridge,2013-06-11 18:37:00,
2013-06-11 12:42:00,93.9,23.7,29.62,SE,142,0.9,6.0,8,0.00,,,0.00,meteobridge,2013-06-11 18:42:00,
2013-06-11 12:47:00,93.6,20.3,29.62,SSW,210,2.0,4.0,7,0.00,,,0.00,meteobridge,2013-06-11 18:47:00,
2013-06-11 12:52:00,94.6,24.3,29.61,SW,236,4.0,4.0,8,0.00,,,0.00,meteobridge,2013-06-11 18:52:00,
2013-06-11 12:57:00,94.6,21.0,29.61,West,267,2.9,8.1,7,0.00,,,0.00,meteobridge,2013-06-11 18:57:00,
2013-06-11 13:02:00,95.2,21.4,29.61,SE,132,2.0,4.0,7,0.00,,,0.00,meteobridge,2013-06-11 19:02:00,
2013-06-11 13:07:00,95.2,21.4,29.61,South,171,4.0,10.1,7,0.00,,,0.00,meteobridge,2013-06-11 19:07:00,
2013-06-11 13:12:00,95.4,21.6,29.60,WSW,245,2.0,8.1,7,0.00,,,0.00,meteobridge,2013-06-11 19:12:00,
2013-06-11 13:17:00,95.9,21.9,29.60,NW,315,0.0,0.9,7,0.00,,,0.00,meteobridge,2013-06-11 19:17:00,
2013-06-11 13:22:00,96.1,22.1,29.60,WSW,238,2.0,6.9,7,0.00,,,0.00,meteobridge,2013-06-11 19:22:00,
2013-06-11 13:27:00,95.7,21.9,29.60,SE,145,0.0,4.0,7,0.00,,,0.00,meteobridge,2013-06-11 19:27:00,
2013-06-11 13:32:00,97.5,23.2,29.59,West,265,0.9,4.0,7,0.00,,,0.00,meteobridge,2013-06-11 19:32:00,
2013-06-11 13:37:00,97.2,19.2,29.59,NW,326,0.9,6.0,6,0.00,,,0.00,meteobridge,2013-06-11 19:37:00,
2013-06-11 13:42:00,97.9,19.8,29.59,NW,325,2.0,4.0,6,0.00,,,0.00,meteobridge,2013-06-11 19:42:00,
2013-06-11 13:47:00,98.2,23.7,29.58,South,190,4.0,4.9,7,0.00,,,0.00,meteobridge,2013-06-11 19:47:00,
2013-06-11 13:52:00,98.1,19.9,29.58,SSE,168,0.0,6.9,6,0.00,,,0.00,meteobridge,2013-06-11 19:52:00,
2013-06-11 13:57:00,97.5,19.6,29.58,SSW,213,6.9,6.9,6,0.00,,,0.00,meteobridge,2013-06-11 19:57:00,
2013-06-11 14:02:00,98.1,23.5,29.58,West,277,0.9,4.0,7,0.00,,,0.00,meteobridge,2013-06-11 20:02:00,
2013-06-11 14:07:00,97.5,19.6,29.57,West,276,2.9,4.0,6,0.00,,,0.00,meteobridge,2013-06-11 20:07:00,
2013-06-11 14:12:00,98.2,19.9,29.57,West,274,4.0,6.9,6,0.00,,,0.00,meteobridge,2013-06-11 20:12:00,
2013-06-11 14:17:00,98.1,19.9,29.57,WNW,295,0.9,2.0,6,0.00,,,0.00,meteobridge,2013-06-11 20:17:00,
2013-06-11 14:23:00,98.6,20.3,29.56,SSE,150,2.9,8.1,6,0.00,,,0.00,meteobridge,2013-06-11 20:23:00,
2013-06-11 14:28:00,98.1,23.5,29.56,SSE,156,10.1,12.1,7,0.00,,,0.00,meteobridge,2013-06-11 20:28:00,
2013-06-11 14:33:00,98.1,23.5,29.55,South,171,4.0,6.9,7,0.00,,,0.00,meteobridge,2013-06-11 20:33:00,
2013-06-11 14:38:00,97.9,19.8,29.55,East,88,0.9,4.9,6,0.00,,,0.00,meteobridge,2013-06-11 20:38:00,
2013-06-11 14:43:00,99.1,20.7,29.55,WSW,254,2.9,2.9,6,0.00,,,0.00,meteobridge,2013-06-11 20:43:00,
2013-06-11 14:48:00,99.0,16.3,29.54,South,172,6.0,6.0,5,0.00,,,0.00,meteobridge,2013-06-11 20:48:00,
2013-06-11 14:53:00,98.1,19.9,29.54,WSW,254,2.0,4.9,6,0.00,,,0.00,meteobridge,2013-06-11 20:53:00,
2013-06-11 14:58:00,98.8,20.5,29.54,SW,214,2.0,2.9,6,0.00,,,0.00,meteobridge,2013-06-11 20:58:00,
2013-06-11 15:03:00,98.4,16.0,29.54,SE,134,4.0,4.9,5,0.00,,,0.00,meteobridge,2013-06-11 21:03:00,
2013-06-11 15:08:00,99.5,20.8,29.54,SW,219,4.9,6.9,6,0.00,,,0.00,meteobridge,2013-06-11 21:08:00,
2013-06-11 15:13:00,99.7,16.9,29.54,SSE,163,2.0,4.0,5,0.00,,,0.00,meteobridge,2013-06-11 21:13:00,
2013-06-11 15:18:00,100.2,21.4,29.53,SE,136,6.9,13.0,6,0.00,,,0.00,meteobridge,2013-06-11 21:18:00,
2013-06-11 15:23:00,100.0,17.1,29.52,South,184,2.9,11.0,5,0.00,,,0.00,meteobridge,2013-06-11 21:23:00,
2013-06-11 15:28:00,100.2,21.4,29.52,South,173,2.9,10.1,6,0.00,,,0.00,meteobridge,2013-06-11 21:28:00,
2013-06-11 15:33:00,100.2,17.2,29.53,South,188,4.9,8.1,5,0.00,,,0.00,meteobridge,2013-06-11 21:33:00,
2013-06-11 15:38:00,99.9,16.9,29.52,WSW,246,4.0,4.9,5,0.00,,,0.00,meteobridge,2013-06-11 21:38:00,
2013-06-11 15:43:00,100.4,17.2,29.53,SSW,201,2.0,11.0,5,0.00,,,0.00,meteobridge,2013-06-11 21:43:00,
2013-06-11 15:48:00,100.4,17.2,29.52,WSW,258,4.9,6.9,5,0.00,,,0.00,meteobridge,2013-06-11 21:48:00,
2013-06-11 15:53:00,100.2,12.0,29.52,SW,229,0.9,4.9,4,0.00,,,0.00,meteobridge,2013-06-11 21:53:00,
2013-06-11 15:59:00,100.4,17.2,29.52,SSW,213,4.9,6.9,5,0.00,,,0.00,meteobridge,2013-06-11 21:59:00,
2013-06-11 16:04:00,100.2,17.2,29.52,SSW,200,0.9,6.0,5,0.00,,,0.00,meteobridge,2013-06-11 22:04:00,
2013-06-11 16:09:00,100.2,12.0,29.52,SSE,150,2.9,8.1,4,0.00,,,0.00,meteobridge,2013-06-11 22:09:00,
2013-06-11 16:14:00,99.1,11.3,29.52,South,179,0.9,4.9,4,0.00,,,0.00,meteobridge,2013-06-11 22:14:00,
2013-06-11 16:19:00,99.7,11.7,29.51,North,11,0.9,6.0,4,0.00,,,0.00,meteobridge,2013-06-11 22:19:00,
2013-06-11 16:24:00,100.2,17.2,29.51,SW,235,4.0,4.0,5,0.00,,,0.00,meteobridge,2013-06-11 22:24:00,
2013-06-11 16:29:00,99.7,16.9,29.51,WSW,244,2.9,6.9,5,0.00,,,0.00,meteobridge,2013-06-11 22:29:00,
2013-06-11 16:34:00,99.5,16.7,29.51,SSE,148,0.9,4.9,5,0.00,,,0.00,meteobridge,2013-06-11 22:34:00,
2013-06-11 16:39:00,100.8,17.6,29.50,NNW,333,2.9,2.9,5,0.00,,,0.00,meteobridge,2013-06-11 22:39:00,
2013-06-11 16:44:00,101.5,12.9,29.50,WSW,240,6.0,8.1,4,0.00,,,0.00,meteobridge,2013-06-11 22:44:00,
2013-06-11 16:49:00,102.2,13.5,29.50,ESE,117,0.9,4.9,4,0.00,,,0.00,meteobridge,2013-06-11 22:49:00,
2013-06-11 16:54:00,101.8,-2.0,29.50,NNE,29,4.0,4.9,2,0.00,,,0.00,meteobridge,2013-06-11 22:54:00,
2013-06-11 16:59:00,101.1,6.3,29.49,NW,304,4.9,8.1,3,0.00,,,0.00,meteobridge,2013-06-11 22:59:00,
2013-06-11 17:04:00,101.7,6.6,29.50,SSW,208,4.0,10.1,3,0.00,,,0.00,meteobridge,2013-06-11 23:04:00,
2013-06-11 17:09:00,101.7,6.6,29.50,West,274,2.9,4.9,3,0.00,,,0.00,meteobridge,2013-06-11 23:09:00,
2013-06-11 17:14:00,101.8,6.8,29.49,WNW,300,0.9,8.1,3,0.00,,,0.00,meteobridge,2013-06-11 23:14:00,
2013-06-11 17:19:00,101.8,6.8,29.49,NNW,337,2.0,4.9,3,0.00,,,0.00,meteobridge,2013-06-11 23:19:00,
2013-06-11 17:24:00,101.8,6.8,29.49,WNW,290,2.9,4.0,3,0.00,,,0.00,meteobridge,2013-06-11 23:24:00,
2013-06-11 17:29:00,101.7,6.6,29.49,West,277,6.9,6.9,3,0.00,,,0.00,meteobridge,2013-06-11 23:29:00,
2013-06-11 17:34:00,101.8,6.8,29.49,NW,320,2.0,8.9,3,0.00,,,0.00,meteobridge,2013-06-11 23:34:00,
2013-06-11 17:39:00,101.3,6.4,29.49,WSW,237,2.0,2.9,3,0.00,,,0.00,meteobridge,2013-06-11 23:39:00,
2013-06-11 17:44:00,100.9,-2.6,29.49,WSW,255,0.9,6.9,2,0.00,,,0.00,meteobridge,2013-06-11 23:44:00,
2013-06-11 17:49:00,100.6,5.9,29.49,NW,315,8.1,8.1,3,0.00,,,0.00,meteobridge,2013-06-11 23:49:00,
2013-06-11 17:54:00,100.4,5.7,29.49,NNW,344,4.0,4.0,3,0.00,,,0.00,meteobridge,2013-06-11 23:54:00,
2013-06-11 17:59:00,100.2,5.7,29.49,West,272,2.9,8.1,3,0.00,,,0.00,meteobridge,2013-06-11 23:59:00,
2013-06-11 18:04:00,100.0,5.5,29.49,WSW,242,2.0,6.0,3,0.00,,,0.00,meteobridge,2013-06-12 00:04:00,
2013-06-11 18:09:00,100.2,5.7,29.49,WSW,256,2.0,4.9,3,0.00,,,0.00,meteobridge,2013-06-12 00:09:00,
2013-06-11 18:14:00,100.4,5.7,29.48,SW,236,2.0,4.9,3,0.00,,,0.00,meteobridge,2013-06-12 00:14:00,
2013-06-11 18:19:00,100.6,-2.7,29.48,NW,320,0.9,4.9,2,0.00,,,0.00,meteobridge,2013-06-12 00:19:00,
2013-06-11 18:24:00,100.0,-3.1,29.48,SSW,211,0.9,8.1,2,0.00,,,0.00,meteobridge,2013-06-12 00:24:00,
2013-06-11 18:29:00,99.7,5.4,29.48,WNW,303,2.0,4.0,3,0.00,,,0.00,meteobridge,2013-06-12 00:29:00,
2013-06-11 18:34:00,99.7,5.4,29.48,NNW,337,2.0,6.9,3,0.00,,,0.00,meteobridge,2013-06-12 00:34:00,
2013-06-11 18:39:00,99.3,5.0,29.48,SW,223,2.9,6.9,3,0.00,,,0.00,meteobridge,2013-06-12 00:39:00,
2013-06-11 18:44:00,99.1,5.0,29.48,SW,232,2.9,6.9,3,0.00,,,0.00,meteobridge,2013-06-12 00:44:00,
2013-06-11 18:49:00,98.8,4.8,29.48,NW,306,2.0,4.9,3,0.00,,,0.00,meteobridge,2013-06-12 00:49:00,
2013-06-11 18:54:00,98.4,-4.2,29.48,NNW,336,2.0,8.1,2,0.00,,,0.00,meteobridge,2013-06-12 00:54:00,
2013-06-11 18:59:00,98.1,-4.4,29.48,WNW,292,0.0,6.0,2,0.00,,,0.00,meteobridge,2013-06-12 00:59:00,
2013-06-11 19:04:00,97.7,4.1,29.49,NW,314,2.9,6.0,3,0.00,,,0.00,meteobridge,2013-06-12 01:04:00,
2013-06-11 19:09:00,97.2,3.7,29.49,West,263,0.9,6.9,3,0.00,,,0.00,meteobridge,2013-06-12 01:09:00,
2013-06-11 19:14:00,96.4,3.2,29.49,WNW,292,0.9,4.9,3,0.00,,,0.00,meteobridge,2013-06-12 01:14:00,
2013-06-11 19:19:00,96.3,3.0,29.49,WSW,248,2.0,8.1,3,0.00,,,0.00,meteobridge,2013-06-12 01:19:00,
2013-06-11 19:24:00,95.9,9.1,29.49,WSW,250,2.0,4.0,4,0.00,,,0.00,meteobridge,2013-06-12 01:24:00,
2013-06-11 19:29:00,95.7,9.0,29.49,West,269,2.0,6.0,4,0.00,,,0.00,meteobridge,2013-06-12 01:29:00,
2013-06-11 19:34:00,95.5,9.0,29.49,West,263,2.0,6.0,4,0.00,,,0.00,meteobridge,2013-06-12 01:34:00,
2013-06-11 19:39:00,95.2,8.6,29.49,WSW,257,2.9,4.9,4,0.00,,,0.00,meteobridge,2013-06-12 01:39:00,
2013-06-11 19:44:00,95.0,8.6,29.49,WNW,291,2.9,8.1,4,0.00,,,0.00,meteobridge,2013-06-12 01:44:00,
2013-06-11 19:49:00,94.6,8.2,29.50,WSW,248,6.0,6.0,4,0.00,,,0.00,meteobridge,2013-06-12 01:49:00,
2013-06-11 19:54:00,94.5,8.2,29.50,WSW,242,0.9,2.0,4,0.00,,,0.00,meteobridge,2013-06-12 01:54:00,
2013-06-11 19:59:00,93.9,7.7,29.50,NW,309,2.0,4.0,4,0.00,,,0.00,meteobridge,2013-06-12 01:59:00,
2013-06-11 20:04:00,93.6,7.5,29.50,SSW,205,2.0,2.9,4,0.00,,,0.00,meteobridge,2013-06-12 02:04:00,
2013-06-11 20:09:00,93.2,7.3,29.50,NNW,328,2.0,4.9,4,0.00,,,0.00,meteobridge,2013-06-12 02:09:00,
2013-06-11 20:14:00,93.0,7.2,29.50,NW,323,0.0,0.9,4,0.00,,,0.00,meteobridge,2013-06-12 02:14:00,
2013-06-11 20:19:00,92.8,7.0,29.50,NNW,340,0.0,4.0,4,0.00,,,0.00,meteobridge,2013-06-12 02:19:00,
2013-06-11 20:24:00,92.1,11.5,29.50,NNW,332,0.0,2.0,5,0.00,,,0.00,meteobridge,2013-06-12 02:24:00,
2013-06-11 20:29:00,91.2,15.1,29.51,NW,313,0.9,2.0,6,0.00,,,0.00,meteobridge,2013-06-12 02:29:00,
2013-06-11 20:35:00,90.9,14.7,29.51,NW,314,0.0,0.9,6,0.00,,,0.00,meteobridge,2013-06-12 02:35:00,
2013-06-11 20:40:00,90.3,10.2,29.51,NW,315,0.9,2.9,5,0.00,,,0.00,meteobridge,2013-06-12 02:40:00,
2013-06-11 20:45:00,90.0,10.0,29.51,NW,315,0.0,0.9,5,0.00,,,0.00,meteobridge,2013-06-12 02:45:00,
2013-06-11 20:50:00,89.1,13.5,29.52,NW,315,0.0,0.9,6,0.00,,,0.00,meteobridge,2013-06-12 02:50:00,
2013-06-11 20:55:00,88.9,16.9,29.52,NW,317,0.0,0.9,7,0.00,,,0.00,meteobridge,2013-06-12 02:55:00,
2013-06-11 21:00:00,88.3,12.9,29.52,NNW,336,0.9,0.9,6,0.00,,,0.00,meteobridge,2013-06-12 03:00:00,
2013-06-11 21:05:00,88.0,16.2,29.52,NNW,336,0.0,0.9,7,0.00,,,0.00,meteobridge,2013-06-12 03:05:00,
2013-06-11 21:10:00,87.1,15.6,29.53,NNW,336,0.0,0.9,7,0.00,,,0.00,meteobridge,2013-06-12 03:10:00,
2013-06-11 21:15:00,86.0,17.8,29.53,NNW,336,0.0,0.0,8,0.00,,,0.00,meteobridge,2013-06-12 03:15:00,
2013-06-11 21:21:00,84.9,19.8,29.53,NNW,336,0.0,0.0,9,0.00,,,0.00,meteobridge,2013-06-12 03:21:00,
2013-06-11 21:26:00,84.0,23.9,29.54,NNW,336,0.0,0.0,11,0.00,,,0.00,meteobridge,2013-06-12 03:26:00,
2013-06-11 21:31:00,83.1,25.3,29.54,NNW,336,0.0,0.0,12,0.00,,,0.00,meteobridge,2013-06-12 03:31:00,
2013-06-11 21:36:00,82.2,24.6,29.54,NNW,336,0.0,0.0,12,0.00,,,0.00,meteobridge,2013-06-12 03:36:00,
2013-06-11 21:41:00,81.7,24.1,29.54,NNW,336,0.0,0.0,12,0.00,,,0.00,meteobridge,2013-06-12 03:41:00,
2013-06-11 21:46:00,81.3,21.7,29.54,North,349,0.0,2.9,11,0.00,,,0.00,meteobridge,2013-06-12 03:46:00,
2013-06-11 21:51:00,81.5,24.1,29.55,North,349,0.0,0.9,12,0.00,,,0.00,meteobridge,2013-06-12 03:51:00,
2013-06-11 21:57:00,80.8,27.1,29.55,North,349,0.0,0.0,14,0.00,,,0.00,meteobridge,2013-06-12 03:57:00,
2013-06-11 22:01:00,80.2,26.8,29.55,North,349,0.0,0.0,14,0.00,,,0.00,meteobridge,2013-06-12 04:01:00,
2013-06-11 22:02:00,80.2,25.0,29.55,North,349,0.0,0.9,13,0.00,,,0.00,meteobridge,2013-06-12 04:02:00,
2013-06-11 22:03:00,80.1,24.8,29.55,North,349,0.0,0.9,13,0.00,,,0.00,meteobridge,2013-06-12 04:03:00,
2013-06-11 22:09:00,80.1,22.8,29.56,North,355,0.0,0.0,12,0.00,,,0.00,meteobridge,2013-06-12 04:09:00,
2013-06-11 22:14:00,80.1,26.6,29.57,North,355,0.0,0.0,14,0.00,,,0.00,meteobridge,2013-06-12 04:14:00,
2013-06-11 22:20:00,79.5,22.5,29.57,North,355,0.0,0.9,12,0.00,,,0.00,meteobridge,2013-06-12 04:20:00,
2013-06-11 22:25:00,79.2,25.9,29.57,North,355,0.0,0.0,14,0.00,,,0.00,meteobridge,2013-06-12 04:25:00,
2013-06-11 22:30:00,79.0,23.9,29.57,North,355,0.0,0.0,13,0.00,,,0.00,meteobridge,2013-06-12 04:30:00,
2013-06-11 22:35:00,78.4,25.3,29.57,North,355,0.0,0.0,14,0.00,,,0.00,meteobridge,2013-06-12 04:35:00,
2013-06-11 22:40:00,78.3,23.4,29.57,North,355,0.0,0.9,13,0.00,,,0.00,meteobridge,2013-06-12 04:40:00,
2013-06-11 22:45:00,78.4,23.5,29.58,North,355,0.0,0.0,13,0.00,,,0.00,meteobridge,2013-06-12 04:45:00,
2013-06-11 22:50:00,78.6,21.7,29.58,North,355,0.0,0.0,12,0.00,,,0.00,meteobridge,2013-06-12 04:50:00,
2013-06-11 22:55:00,79.2,22.1,29.58,North,355,0.0,0.0,12,0.00,,,0.00,meteobridge,2013-06-12 04:55:00,
2013-06-11 23:01:00,78.4,21.6,29.58,North,355,0.0,0.0,12,0.00,,,0.00,meteobridge,2013-06-12 05:01:00,
2013-06-11 23:06:00,77.4,24.4,29.58,North,355,0.0,0.0,14,0.00,,,0.00,meteobridge,2013-06-12 05:06:00,
2013-06-11 23:11:00,76.6,27.1,29.58,North,355,0.0,0.0,16,0.00,,,0.00,meteobridge,2013-06-12 05:11:00,
2013-06-11 23:17:00,75.9,25.0,29.58,North,355,0.0,0.0,15,0.00,,,0.00,meteobridge,2013-06-12 05:17:00,
2013-06-11 23:22:00,75.4,26.1,29.58,North,355,0.0,0.0,16,0.00,,,0.00,meteobridge,2013-06-12 05:22:00,
2013-06-11 23:27:00,75.4,27.5,29.58,North,355,0.0,0.0,17,0.00,,,0.00,meteobridge,2013-06-12 05:27:00,
2013-06-11 23:32:00,75.0,25.7,29.58,North,355,0.0,0.0,16,0.00,,,0.00,meteobridge,2013-06-12 05:32:00,
2013-06-11 23:37:00,74.7,27.0,29.58,North,355,0.0,0.0,17,0.00,,,0.00,meteobridge,2013-06-12 05:37:00,
2013-06-11 23:42:00,74.3,28.0,29.59,North,355,0.0,0.9,18,0.00,,,0.00,meteobridge,2013-06-12 05:42:00,
2013-06-11 23:47:00,74.1,27.9,29.59,North,355,0.0,0.0,18,0.00,,,0.00,meteobridge,2013-06-12 05:47:00,
2013-06-11 23:53:00,73.9,25.0,29.59,North,355,0.0,0.0,16,0.00,,,0.00,meteobridge,2013-06-12 05:53:00,
2013-06-11 23:58:00,73.9,25.0,29.59,North,355,0.0,0.0,16,0.00,,,0.00,meteobridge,2013-06-12 05:58:00,